This is the latest recevied weather packets stored in our database for station/object N8ESC. If no packets are shown the sender has not sent any weather packets the latest 10 day(s).
| Time | Temp. | Humidity | Pressure | Rain* | Wind** | Luminosity | Snow |
|---|---|---|---|---|---|---|---|
| 1777811969 | 5.56° C | 83% | 1004.5 hPa | 0 mm | - | 106 W/m² | - |
| 1777811667 | 5.56° C | 84% | 1004.8 hPa | 0 mm | - | 118 W/m² | - |
| 1777811362 | 5.56° C | 85% | 1004.6 hPa | 0 mm | - | 120 W/m² | - |
| 1777811060 | 5.56° C | 85% | 1004.9 hPa | 0 mm | - | 93 W/m² | - |
| 1777810757 | 5.56° C | 85% | 1004.8 hPa | 0 mm | - | 39 W/m² | - |
| 1777810454 | 5.56° C | 85% | 1004.6 hPa | 0 mm | - | 51 W/m² | - |
| 1777810149 | 5.56° C | 86% | 1004.7 hPa | 0 mm | - | 40 W/m² | - |
| 1777809847 | 5.56° C | 86% | 1004.7 hPa | 0 mm | - | 42 W/m² | - |
| 1777809544 | 5.56° C | 86% | 1004.4 hPa | 0 mm | - | 38 W/m² | - |
| 1777809242 | 5.56° C | 87% | 1004.5 hPa | 0 mm | - | 45 W/m² | - |
| 1777808940 | 5.56° C | 88% | 1004.6 hPa | 0 mm | - | 29 W/m² | - |
| 1777808636 | 5.56° C | 89% | 1004.6 hPa | 0 mm | - | 25 W/m² | - |
| 1777808333 | 5.56° C | 89% | 1004.6 hPa | 0 mm | - | 24 W/m² | - |
| 1777808032 | 5.56° C | 88% | 1004.6 hPa | 0 mm | - | 13 W/m² | - |
| 1777807728 | 5.56° C | 89% | 1004.7 hPa | 0 mm | - | 12 W/m² | - |
| 1777807428 | 5.56° C | 89% | 1004.6 hPa | 0 mm | - | 13 W/m² | - |
| 1777807127 | 5.56° C | 89% | 1004.6 hPa | 0 mm | - | 11 W/m² | - |
| 1777806826 | 5.56° C | 89% | 1004.6 hPa | 0 mm | - | 9 W/m² | - |
| 1777806521 | 5.56° C | 89% | 1004.6 hPa | 0 mm | - | 9 W/m² | - |
| 1777806218 | 5.56° C | 89% | 1004.8 hPa | 0 mm | - | 9 W/m² | - |
| 1777805914 | 5.56° C | 88% | 1004.7 hPa | 0 mm | - | 9 W/m² | - |
| 1777805612 | 5.56° C | 89% | 1004.7 hPa | 0 mm | - | 7 W/m² | - |
| 1777805309 | 5.56° C | 88% | 1004.8 hPa | 0 mm | - | 4 W/m² | - |
| 1777805007 | 5.56° C | 89% | 1004.7 hPa | 1.27 mm | - | 2 W/m² | - |
| 1777804704 | 5.56° C | 88% | 1004.8 hPa | 1.78 mm | - | 1 W/m² | - |
* Rain latest hour (hover to see other rain measurements)
** Current wind speed in m/s (hover to see current wind gust speed)